DAL38 KLAX-KSFO

Flight info

Callsign DAL38
Flight time 0h 56m
Altitude 32000
Route SUMMR2 STOKD SERFR SERFR4
Aircraft B738/M-SDE2E3FGHIRWXY/LB1

Departure

Time 2026-05-07 18:13
Airport Los Angeles International Airport (KLAX)

Arrival

Time 2026-05-07 19:10
Airport San Francisco International Airport (KSFO)
Time Latitude Longitude Altitude Speed Heading
2026-05-07 17:49 33.94695 -118.40820 121 ft 0 kts 148°
2026-05-07 17:58 33.94702 -118.40826 122 ft 2 kts 129°
2026-05-07 17:59 33.94709 -118.40842 122 ft 2 kts 98°
2026-05-07 17:59 33.94708 -118.40861 122 ft 2 kts 68°
2026-05-07 17:59 33.94699 -118.40875 122 ft 2 kts 38°
2026-05-07 17:59 33.94686 -118.40883 122 ft 2 kts
2026-05-07 18:00 33.94672 -118.40882 122 ft 1 kts 344°
2026-05-07 18:00 33.94669 -118.40881 122 ft 0 kts 345°
2026-05-07 18:08 33.94685 -118.40887 122 ft 5 kts 345°
2026-05-07 18:09 33.94722 -118.40899 122 ft 5 kts 345°
2026-05-07 18:09 33.94760 -118.40895 123 ft 5 kts 21°
2026-05-07 18:09 33.94812 -118.40870 124 ft 6 kts 27°
2026-05-07 18:09 33.94842 -118.40835 124 ft 7 kts 72°
2026-05-07 18:10 33.94849 -118.40754 123 ft 13 kts 84°
2026-05-07 18:10 33.94862 -118.40608 121 ft 21 kts 84°
2026-05-07 18:10 33.94883 -118.40434 120 ft 15 kts 80°
2026-05-07 18:10 33.94900 -118.40297 118 ft 14 kts 82°
2026-05-07 18:11 33.94914 -118.40166 118 ft 15 kts 83°
2026-05-07 18:11 33.94926 -118.40059 116 ft 10 kts 81°
2026-05-07 18:11 33.94944 -118.39945 115 ft 4 kts 59°
2026-05-07 18:11 33.94946 -118.39944 115 ft 0 kts 31°
2026-05-07 18:12 33.94970 -118.39932 114 ft 7 kts 15°
2026-05-07 18:12 33.95027 -118.39941 114 ft 2 kts 321°
2026-05-07 18:12 33.95033 -118.39958 114 ft 2 kts 287°
2026-05-07 18:13 33.95031 -118.40057 115 ft 42 kts 262°
2026-05-07 18:13 33.94956 -118.40739 123 ft 119 kts 263°
2026-05-07 18:13 33.94828 -118.41988 227 ft 169 kts 263°
2026-05-07 18:13 33.94640 -118.43372 1030 ft 170 kts 257°
2026-05-07 18:14 33.94284 -118.44743 1727 ft 180 kts 248°
2026-05-07 18:14 33.93848 -118.46204 2329 ft 198 kts 259°
2026-05-07 18:14 33.93618 -118.47886 3198 ft 209 kts 263°
2026-05-07 18:14 33.93390 -118.49662 3840 ft 226 kts 263°
2026-05-07 18:15 33.93146 -118.51601 4522 ft 241 kts 265°
2026-05-07 18:15 33.93266 -118.53612 5280 ft 248 kts 282°
2026-05-07 18:15 33.93585 -118.55655 6163 ft 251 kts 278°
2026-05-07 18:15 33.93685 -118.57722 7012 ft 256 kts 270°
2026-05-07 18:16 33.93574 -118.59904 7856 ft 263 kts 266°
2026-05-07 18:16 33.93385 -118.62088 8708 ft 269 kts 265°
2026-05-07 18:16 33.93183 -118.64332 9548 ft 276 kts 266°
2026-05-07 18:16 33.92989 -118.66646 10428 ft 282 kts 266°
2026-05-07 18:17 33.92806 -118.68993 11347 ft 287 kts 266°
2026-05-07 18:17 33.92620 -118.71423 11832 ft 297 kts 266°
2026-05-07 18:17 33.92429 -118.73918 11969 ft 310 kts 266°
2026-05-07 18:17 33.92218 -118.76678 11983 ft 338 kts 266°
2026-05-07 18:18 33.92000 -118.79475 11970 ft 343 kts 266°
2026-05-07 18:18 33.91778 -118.82373 11981 ft 344 kts 268°
2026-05-07 18:18 33.91697 -118.85272 12121 ft 358 kts 272°
2026-05-07 18:18 33.91758 -118.88229 13297 ft 357 kts 275°
2026-05-07 18:19 33.91866 -118.91167 14523 ft 356 kts 275°
2026-05-07 18:19 33.91984 -118.94154 15604 ft 362 kts 275°
2026-05-07 18:19 33.92100 -118.97157 16680 ft 366 kts 276°
2026-05-07 18:19 33.92396 -119.00231 17658 ft 369 kts 283°
2026-05-07 18:20 33.93128 -119.03153 18633 ft 370 kts 296°
2026-05-07 18:20 33.94291 -119.05872 19628 ft 372 kts 302°
2026-05-07 18:20 33.95643 -119.08562 20573 ft 376 kts 304°
2026-05-07 18:20 33.97033 -119.11195 21473 ft 380 kts 305°
2026-05-07 18:21 33.98455 -119.13864 22329 ft 385 kts 304°
2026-05-07 18:21 33.99977 -119.16514 23195 ft 387 kts 310°
2026-05-07 18:21 34.01782 -119.18932 24044 ft 389 kts 317°
2026-05-07 18:21 34.03801 -119.21094 24892 ft 391 kts 323°
2026-05-07 18:22 34.05963 -119.23090 25649 ft 395 kts 326°
2026-05-07 18:22 34.07451 -119.24377 26170 ft 397 kts 327°
2026-05-07 18:22 34.10464 -119.26911 27291 ft 398 kts 327°
2026-05-07 18:22 34.12735 -119.28815 28277 ft 395 kts 327°
2026-05-07 18:23 34.14961 -119.30691 29207 ft 392 kts 327°
2026-05-07 18:23 34.17170 -119.32566 30047 ft 390 kts 327°
2026-05-07 18:23 34.19366 -119.34441 30946 ft 385 kts 327°
2026-05-07 18:23 34.21535 -119.36299 31701 ft 383 kts 327°
2026-05-07 18:24 34.23731 -119.38184 32012 ft 385 kts 327°
2026-05-07 18:24 34.28049 -119.41905 32065 ft 377 kts 327°
2026-05-07 18:25 34.32294 -119.45577 32071 ft 376 kts 327°
2026-05-07 18:25 34.36579 -119.49287 32077 ft 378 kts 327°
2026-05-07 18:26 34.40795 -119.53056 32084 ft 379 kts 323°
2026-05-07 18:26 34.44661 -119.57423 32100 ft 381 kts 317°
2026-05-07 18:27 34.48375 -119.62038 32104 ft 381 kts 317°
2026-05-07 18:27 34.52054 -119.66628 32112 ft 382 kts 317°
2026-05-07 18:28 34.55756 -119.71217 32122 ft 380 kts 317°
2026-05-07 18:28 34.59463 -119.75795 32135 ft 382 kts 317°
2026-05-07 18:29 34.63208 -119.80426 32128 ft 382 kts 317°
2026-05-07 18:29 34.66897 -119.84992 32119 ft 381 kts 317°
2026-05-07 18:30 34.70604 -119.89586 32124 ft 382 kts 317°
2026-05-07 18:30 34.74330 -119.94209 32127 ft 382 kts 316°
2026-05-07 18:31 34.78035 -119.98811 32150 ft 382 kts 317°
2026-05-07 18:31 34.81764 -120.03450 32155 ft 381 kts 316°
2026-05-07 18:32 34.85454 -120.08051 32155 ft 382 kts 317°
2026-05-07 18:32 34.89162 -120.12680 32135 ft 382 kts 316°
2026-05-07 18:33 34.92851 -120.17293 32139 ft 382 kts 316°
2026-05-07 18:33 34.96571 -120.21949 32121 ft 382 kts 316°
2026-05-07 18:34 35.00294 -120.26608 32101 ft 383 kts 316°
2026-05-07 18:34 35.03992 -120.31246 32085 ft 382 kts 316°
2026-05-07 18:35 35.07713 -120.35920 32090 ft 382 kts 316°
2026-05-07 18:35 35.11487 -120.40463 32078 ft 383 kts 319°
2026-05-07 18:36 35.15408 -120.44805 32078 ft 381 kts 320°
2026-05-07 18:36 35.19374 -120.49177 32080 ft 383 kts 320°
2026-05-07 18:37 35.23293 -120.53538 32086 ft 382 kts 320°
2026-05-07 18:37 35.27223 -120.57942 32087 ft 383 kts 320°
2026-05-07 18:38 35.31157 -120.62367 32086 ft 383 kts 320°
2026-05-07 18:38 35.35064 -120.66769 32088 ft 382 kts 319°
2026-05-07 18:39 35.38977 -120.71184 32098 ft 381 kts 319°
2026-05-07 18:39 35.42876 -120.75590 32098 ft 383 kts 319°
2026-05-07 18:40 35.46782 -120.80012 32098 ft 382 kts 319°
2026-05-07 18:40 35.50831 -120.84282 32094 ft 382 kts 323°
2026-05-07 18:41 35.55075 -120.88186 32090 ft 382 kts 325°
2026-05-07 18:41 35.59338 -120.92053 32087 ft 382 kts 325°
2026-05-07 18:42 35.63599 -120.95966 32083 ft 382 kts 324°
2026-05-07 18:42 35.67853 -120.99910 32080 ft 382 kts 324°
2026-05-07 18:43 35.72076 -121.03840 32087 ft 383 kts 324°
2026-05-07 18:43 35.76347 -121.07822 32095 ft 383 kts 324°
2026-05-07 18:44 35.80571 -121.11769 32100 ft 383 kts 324°
2026-05-07 18:44 35.84818 -121.15744 32105 ft 383 kts 324°
2026-05-07 18:45 35.89083 -121.19741 32105 ft 383 kts 324°
2026-05-07 18:45 35.93343 -121.23739 32099 ft 384 kts 324°
2026-05-07 18:46 35.97583 -121.27722 32092 ft 385 kts 324°
2026-05-07 18:46 36.01834 -121.31723 32093 ft 385 kts 324°
2026-05-07 18:47 36.06099 -121.35741 32090 ft 385 kts 324°
2026-05-07 18:47 36.10492 -121.39481 32102 ft 385 kts 329°
2026-05-07 18:48 36.14972 -121.42912 31906 ft 382 kts 329°
2026-05-07 18:48 36.17213 -121.44621 31495 ft 377 kts 329°
2026-05-07 18:48 36.19441 -121.46327 30951 ft 376 kts 329°
2026-05-07 18:48 36.21671 -121.48047 30335 ft 377 kts 329°
2026-05-07 18:49 36.23874 -121.49756 29891 ft 373 kts 329°
2026-05-07 18:49 36.26060 -121.51459 29408 ft 370 kts 329°
2026-05-07 18:49 36.28230 -121.53154 28915 ft 367 kts 329°
2026-05-07 18:49 36.30356 -121.54817 28434 ft 364 kts 329°
2026-05-07 18:50 36.32509 -121.56506 27950 ft 361 kts 329°
2026-05-07 18:50 36.34597 -121.58144 27476 ft 358 kts 329°
2026-05-07 18:50 36.36708 -121.59802 26996 ft 355 kts 329°
2026-05-07 18:50 36.38774 -121.61425 26528 ft 352 kts 329°
2026-05-07 18:51 36.40825 -121.63036 26065 ft 349 kts 329°
2026-05-07 18:51 36.42882 -121.64655 25600 ft 346 kts 329°
2026-05-07 18:51 36.44901 -121.66245 25151 ft 343 kts 329°
2026-05-07 18:51 36.46896 -121.67817 24701 ft 340 kts 329°
2026-05-07 18:52 36.48873 -121.69376 24259 ft 337 kts 329°
2026-05-07 18:52 36.50818 -121.70910 23821 ft 334 kts 329°
2026-05-07 18:52 36.52779 -121.72459 23376 ft 331 kts 329°
2026-05-07 18:52 36.54723 -121.73995 22938 ft 329 kts 329°
2026-05-07 18:53 36.56639 -121.75511 22506 ft 326 kts 329°
2026-05-07 18:53 36.58555 -121.77027 22072 ft 324 kts 329°
2026-05-07 18:53 36.60431 -121.78515 21644 ft 322 kts 328°
2026-05-07 18:53 36.62318 -121.80010 21214 ft 320 kts 329°
2026-05-07 18:54 36.64176 -121.81484 20793 ft 318 kts 328°
2026-05-07 18:54 36.66024 -121.82949 20371 ft 316 kts 328°
2026-05-07 18:54 36.67883 -121.84423 19946 ft 314 kts 328°
2026-05-07 18:54 36.69705 -121.85870 19533 ft 312 kts 328°
2026-05-07 18:55 36.71520 -121.87310 19119 ft 310 kts 329°
2026-05-07 18:55 36.73397 -121.88699 18702 ft 319 kts 333°
2026-05-07 18:55 36.75456 -121.89812 18259 ft 326 kts 342°
2026-05-07 18:55 36.77640 -121.90571 17821 ft 323 kts 347°
2026-05-07 18:56 36.79803 -121.91148 17392 ft 319 kts 349°
2026-05-07 18:56 36.81978 -121.91688 16908 ft 317 kts 349°
2026-05-07 18:56 36.84142 -121.92239 16389 ft 317 kts 348°
2026-05-07 18:56 36.86274 -121.92806 15939 ft 314 kts 348°
2026-05-07 18:57 36.88408 -121.93392 15516 ft 311 kts 348°
2026-05-07 18:57 36.90505 -121.93976 15099 ft 308 kts 347°
2026-05-07 18:57 36.92604 -121.94563 14649 ft 304 kts 347°
2026-05-07 18:57 36.94644 -121.95136 14245 ft 300 kts 347°
2026-05-07 18:58 36.96646 -121.95778 13865 ft 297 kts 344°
2026-05-07 18:58 36.98629 -121.96545 13464 ft 295 kts 342°
2026-05-07 18:58 37.00559 -121.97338 13063 ft 292 kts 342°
2026-05-07 18:58 37.02478 -121.98120 12681 ft 290 kts 342°
2026-05-07 18:59 37.04406 -121.98890 12303 ft 288 kts 342°
2026-05-07 18:59 37.06332 -121.99645 11904 ft 287 kts 342°
2026-05-07 18:59 37.08236 -122.00389 11536 ft 285 kts 342°
2026-05-07 18:59 37.10125 -122.01126 11142 ft 284 kts 342°
2026-05-07 19:00 37.11946 -122.01837 10757 ft 282 kts 342°
2026-05-07 19:00 37.13813 -122.02567 10471 ft 281 kts 342°
2026-05-07 19:00 37.15689 -122.03302 10039 ft 282 kts 342°
2026-05-07 19:00 37.17557 -122.04034 9776 ft 275 kts 341°
2026-05-07 19:01 37.19344 -122.04733 9528 ft 269 kts 341°
2026-05-07 19:01 37.21142 -122.05438 9165 ft 267 kts 341°
2026-05-07 19:01 37.22906 -122.06130 8826 ft 265 kts 341°
2026-05-07 19:01 37.24669 -122.06821 8479 ft 263 kts 341°
2026-05-07 19:02 37.26408 -122.07504 8136 ft 260 kts 341°
2026-05-07 19:02 37.28133 -122.08182 7907 ft 257 kts 341°
2026-05-07 19:02 37.29854 -122.08858 7341 ft 265 kts 341°
2026-05-07 19:02 37.31618 -122.09555 6904 ft 265 kts 341°
2026-05-07 19:03 37.33358 -122.10241 6561 ft 261 kts 341°
2026-05-07 19:03 37.35089 -122.10925 6230 ft 258 kts 341°
2026-05-07 19:03 37.36799 -122.11595 5961 ft 254 kts 341°
2026-05-07 19:03 37.38477 -122.12222 5896 ft 247 kts 342°
2026-05-07 19:04 37.40134 -122.12801 5553 ft 248 kts 344°
2026-05-07 19:04 37.41798 -122.13355 5194 ft 247 kts 344°
2026-05-07 19:04 37.43454 -122.13912 4906 ft 243 kts 343°
2026-05-07 19:04 37.45073 -122.14468 4628 ft 239 kts 344°
2026-05-07 19:05 37.46677 -122.15009 4350 ft 236 kts 344°
2026-05-07 19:05 37.48249 -122.15527 4080 ft 232 kts 344°
2026-05-07 19:05 37.49801 -122.16037 3815 ft 229 kts 344°
2026-05-07 19:05 37.51339 -122.16543 3551 ft 227 kts 344°
2026-05-07 19:06 37.52837 -122.17097 3291 ft 223 kts 337°
2026-05-07 19:06 37.54858 -122.19688 2740 ft 198 kts 295°
2026-05-07 19:06 37.55403 -122.21196 2481 ft 181 kts 296°
2026-05-07 19:07 37.55950 -122.22613 2254 ft 176 kts 297°
2026-05-07 19:07 37.56492 -122.23971 2027 ft 174 kts 297°
2026-05-07 19:07 37.57040 -122.25330 1799 ft 173 kts 299°
2026-05-07 19:07 37.57668 -122.26605 1639 ft 170 kts 303°
2026-05-07 19:08 37.58248 -122.27818 1380 ft 156 kts 299°
2026-05-07 19:08 37.58731 -122.28973 1151 ft 140 kts 297°
2026-05-07 19:08 37.59152 -122.30031 951 ft 132 kts 297°
2026-05-07 19:08 37.59558 -122.31050 796 ft 133 kts 297°
2026-05-07 19:09 37.59987 -122.32128 632 ft 139 kts 297°
2026-05-07 19:09 37.60426 -122.33236 457 ft 138 kts 295°
2026-05-07 19:09 37.60783 -122.34328 332 ft 134 kts 296°
2026-05-07 19:09 37.61207 -122.35375 142 ft 135 kts 297°
2026-05-07 19:10 37.61619 -122.36356 13 ft 112 kts 297°
2026-05-07 19:10 37.61862 -122.36930 13 ft 55 kts 298°
2026-05-07 19:10 37.62035 -122.37341 16 ft 45 kts 298°
2026-05-07 19:10 37.62158 -122.37653 26 ft 32 kts 295°
2026-05-07 19:11 37.62205 -122.37927 30 ft 32 kts 277°
2026-05-07 19:11 37.62227 -122.38175 31 ft 31 kts 271°
2026-05-07 19:11 37.62223 -122.38416 31 ft 24 kts 269°
2026-05-07 19:11 37.62203 -122.38605 32 ft 16 kts 253°
2026-05-07 19:12 37.62118 -122.38586 32 ft 25 kts 115°
2026-05-07 19:12 37.62045 -122.38385 32 ft 28 kts 116°
2026-05-07 19:12 37.61965 -122.38185 32 ft 26 kts 118°
2026-05-07 19:12 37.61881 -122.38024 32 ft 24 kts 133°
2026-05-07 19:13 37.61713 -122.37942 31 ft 25 kts 192°
2026-05-07 19:13 37.61587 -122.38062 32 ft 18 kts 274°
2026-05-07 19:13 37.61582 -122.38172 32 ft 8 kts 223°
2026-05-07 19:13 37.61539 -122.38214 32 ft 5 kts 221°
2026-05-07 19:14 37.61525 -122.38229 32 ft 0 kts 221°